LAN1234 KMIA-MMUN

Flight info

Callsign LAN1234
Flight time 1h 41m
Altitude 32000
Route GLADZ4 LULLS Y196 CANOA UB879 NOSAT NOSAT1B
Aircraft A320/M-SDE3FGHIRWY/LB1

Departure

Time 2026-05-03 21:42
Airport Miami International Airport (KMIA)

Arrival

Time 2026-05-03 23:23
Airport Cancún International Airport (MMUN)
Time Latitude Longitude Altitude Speed Heading
2026-05-03 20:52 25.79056 -80.27873 16 ft 0 kts 309°
2026-05-03 21:17 25.79053 -80.27871 15 ft 2 kts 308°
2026-05-03 21:17 25.79043 -80.27855 15 ft 3 kts 292°
2026-05-03 21:18 25.79038 -80.27833 17 ft 3 kts 267°
2026-05-03 21:18 25.79042 -80.27812 17 ft 3 kts 238°
2026-05-03 21:18 25.79053 -80.27797 16 ft 2 kts 207°
2026-05-03 21:18 25.79057 -80.27795 17 ft 0 kts 204°
2026-05-03 21:22 25.79056 -80.27796 16 ft 1 kts 204°
2026-05-03 21:22 25.79027 -80.27810 17 ft 8 kts 204°
2026-05-03 21:22 25.79015 -80.27815 16 ft 0 kts 204°
2026-05-03 21:24 25.79008 -80.27819 17 ft 2 kts 204°
2026-05-03 21:24 25.78978 -80.27833 15 ft 7 kts 202°
2026-05-03 21:25 25.78912 -80.27847 15 ft 12 kts 188°
2026-05-03 21:25 25.78869 -80.27908 18 ft 9 kts 264°
2026-05-03 21:25 25.78881 -80.27967 16 ft 7 kts 294°
2026-05-03 21:25 25.78901 -80.28005 16 ft 5 kts 300°
2026-05-03 21:26 25.78916 -80.28034 16 ft 4 kts 299°
2026-05-03 21:26 25.78925 -80.28053 16 ft 2 kts 299°
2026-05-03 21:26 25.78931 -80.28063 16 ft 1 kts 299°
2026-05-03 21:26 25.78934 -80.28069 16 ft 3 kts 299°
2026-05-03 21:27 25.78952 -80.28106 16 ft 8 kts 299°
2026-05-03 21:27 25.78989 -80.28180 16 ft 14 kts 299°
2026-05-03 21:27 25.79050 -80.28297 16 ft 20 kts 300°
2026-05-03 21:27 25.79123 -80.28431 15 ft 20 kts 309°
2026-05-03 21:28 25.79199 -80.28557 15 ft 19 kts 299°
2026-05-03 21:28 25.79263 -80.28681 14 ft 18 kts 300°
2026-05-03 21:28 25.79319 -80.28791 14 ft 15 kts 299°
2026-05-03 21:28 25.79364 -80.28881 15 ft 12 kts 299°
2026-05-03 21:29 25.79400 -80.28952 15 ft 9 kts 299°
2026-05-03 21:29 25.79428 -80.29007 15 ft 7 kts 299°
2026-05-03 21:29 25.79449 -80.29048 15 ft 5 kts 300°
2026-05-03 21:29 25.79472 -80.29092 15 ft 10 kts 299°
2026-05-03 21:30 25.79517 -80.29180 15 ft 17 kts 300°
2026-05-03 21:30 25.79584 -80.29312 15 ft 22 kts 300°
2026-05-03 21:30 25.79662 -80.29463 15 ft 23 kts 300°
2026-05-03 21:30 25.79743 -80.29621 15 ft 24 kts 299°
2026-05-03 21:31 25.79827 -80.29784 14 ft 23 kts 299°
2026-05-03 21:31 25.79900 -80.29926 14 ft 19 kts 300°
2026-05-03 21:31 25.79926 -80.29978 14 ft 0 kts 299°
2026-05-03 21:39 25.79935 -80.29995 16 ft 5 kts 298°
2026-05-03 21:40 25.79962 -80.30051 14 ft 11 kts 298°
2026-05-03 21:40 25.80014 -80.30124 14 ft 12 kts 334°
2026-05-03 21:40 25.80070 -80.30095 15 ft 9 kts 69°
2026-05-03 21:40 25.80075 -80.30053 13 ft 0 kts 84°
2026-05-03 21:41 25.80075 -80.30052 13 ft 3 kts 84°
2026-05-03 21:41 25.80089 -80.29722 14 ft 78 kts 87°
2026-05-03 21:41 25.80124 -80.28900 17 ft 133 kts 87°
2026-05-03 21:41 25.80181 -80.27736 254 ft 157 kts 85°
2026-05-03 21:42 25.80269 -80.26494 757 ft 171 kts 86°
2026-05-03 21:42 25.80336 -80.25087 1107 ft 194 kts 87°
2026-05-03 21:42 25.80397 -80.23540 1449 ft 216 kts 87°
2026-05-03 21:42 25.80461 -80.21758 1822 ft 241 kts 87°
2026-05-03 21:43 25.80527 -80.19839 2303 ft 260 kts 88°
2026-05-03 21:43 25.80739 -80.17793 3023 ft 269 kts 69°
2026-05-03 21:43 25.81804 -80.16128 3740 ft 273 kts 34°
2026-05-03 21:43 25.83571 -80.15327 4513 ft 275 kts
2026-05-03 21:44 25.85467 -80.15163 4886 ft 277 kts 356°
2026-05-03 21:44 25.87413 -80.15249 4994 ft 276 kts 353°
2026-05-03 21:44 25.89285 -80.15497 5017 ft 273 kts 342°
2026-05-03 21:44 25.91059 -80.16214 5018 ft 271 kts 334°
2026-05-03 21:45 25.92829 -80.16965 5082 ft 275 kts 338°
2026-05-03 21:45 25.94651 -80.17626 5969 ft 276 kts 339°
2026-05-03 21:45 25.96454 -80.18385 6668 ft 278 kts 327°
2026-05-03 21:45 25.97957 -80.19687 6902 ft 272 kts 307°
2026-05-03 21:46 25.98943 -80.21446 6978 ft 267 kts 288°
2026-05-03 21:46 25.99361 -80.23425 7000 ft 264 kts 275°
2026-05-03 21:46 25.99580 -80.25454 6995 ft 264 kts 275°
2026-05-03 21:46 25.99767 -80.27481 7001 ft 264 kts 269°
2026-05-03 21:47 25.99768 -80.29522 7000 ft 264 kts 269°
2026-05-03 21:47 25.99767 -80.31556 6999 ft 264 kts 269°
2026-05-03 21:47 25.99766 -80.33591 6997 ft 263 kts 268°
2026-05-03 21:47 25.99767 -80.35629 7001 ft 264 kts 269°
2026-05-03 21:48 25.99765 -80.37668 7003 ft 264 kts 269°
2026-05-03 21:48 25.99738 -80.39706 7021 ft 264 kts 264°
2026-05-03 21:48 25.99440 -80.41712 7044 ft 264 kts 253°
2026-05-03 21:48 25.98791 -80.43661 7819 ft 273 kts 245°
2026-05-03 21:49 25.97843 -80.45497 9016 ft 274 kts 236°
2026-05-03 21:49 25.96685 -80.47183 10168 ft 274 kts 234°
2026-05-03 21:49 25.95524 -80.48832 10957 ft 276 kts 233°
2026-05-03 21:49 25.94330 -80.50522 11729 ft 278 kts 232°
2026-05-03 21:50 25.93109 -80.52255 12365 ft 297 kts 234°
2026-05-03 21:50 25.91780 -80.54144 12744 ft 321 kts 233°
2026-05-03 21:50 25.90358 -80.56161 13201 ft 339 kts 234°
2026-05-03 21:50 25.88881 -80.58247 13691 ft 348 kts 233°
2026-05-03 21:51 25.87352 -80.60401 14214 ft 352 kts 233°
2026-05-03 21:51 25.85833 -80.62541 14756 ft 354 kts 233°
2026-05-03 21:51 25.84303 -80.64697 15337 ft 356 kts 233°
2026-05-03 21:51 25.82766 -80.66866 15824 ft 359 kts 234°
2026-05-03 21:52 25.81221 -80.69045 15961 ft 358 kts 234°
2026-05-03 21:52 25.79697 -80.71214 16004 ft 354 kts 237°
2026-05-03 21:52 25.78460 -80.73554 16000 ft 354 kts 246°
2026-05-03 21:52 25.77633 -80.76080 16004 ft 355 kts 254°
2026-05-03 21:53 25.76929 -80.78711 16001 ft 355 kts 253°
2026-05-03 21:53 25.76209 -80.81370 16002 ft 355 kts 253°
2026-05-03 21:53 25.75503 -80.83959 16003 ft 355 kts 253°
2026-05-03 21:53 25.74778 -80.86610 16002 ft 355 kts 253°
2026-05-03 21:54 25.74069 -80.89195 16003 ft 355 kts 253°
2026-05-03 21:54 25.73351 -80.91810 15999 ft 355 kts 253°
2026-05-03 21:54 25.72635 -80.94426 15997 ft 355 kts 253°
2026-05-03 21:54 25.71922 -80.97041 16002 ft 355 kts 253°
2026-05-03 21:55 25.71205 -80.99661 16000 ft 355 kts 253°
2026-05-03 21:55 25.70488 -81.02277 15999 ft 354 kts 253°
2026-05-03 21:55 25.69774 -81.04889 16002 ft 354 kts 253°
2026-05-03 21:55 25.69053 -81.07520 16384 ft 358 kts 253°
2026-05-03 21:56 25.68326 -81.10166 16967 ft 360 kts 253°
2026-05-03 21:56 25.67594 -81.12823 17500 ft 361 kts 253°
2026-05-03 21:56 25.66856 -81.15494 18042 ft 364 kts 253°
2026-05-03 21:56 25.66112 -81.18182 18519 ft 366 kts 253°
2026-05-03 21:57 25.65345 -81.20875 18968 ft 368 kts 250°
2026-05-03 21:57 25.64237 -81.23438 19406 ft 371 kts 240°
2026-05-03 21:57 25.62712 -81.25745 19945 ft 374 kts 231°
2026-05-03 21:57 25.60835 -81.27769 20350 ft 378 kts 225°
2026-05-03 21:58 25.58872 -81.29722 20773 ft 380 kts 225°
2026-05-03 21:58 25.56902 -81.31674 21201 ft 382 kts 225°
2026-05-03 21:58 25.54910 -81.33640 21636 ft 384 kts 225°
2026-05-03 21:58 25.52939 -81.35583 22053 ft 385 kts 225°
2026-05-03 21:59 25.50911 -81.37590 22479 ft 387 kts 225°
2026-05-03 21:59 25.48931 -81.39555 22894 ft 388 kts 225°
2026-05-03 21:59 25.46885 -81.41582 23314 ft 390 kts 225°
2026-05-03 21:59 25.44859 -81.43589 23697 ft 391 kts 225°
2026-05-03 22:00 25.42829 -81.45602 24016 ft 393 kts 225°
2026-05-03 22:00 25.40814 -81.47598 24331 ft 395 kts 225°
2026-05-03 22:00 25.38765 -81.49622 24641 ft 396 kts 225°
2026-05-03 22:00 25.36700 -81.51656 24955 ft 398 kts 225°
2026-05-03 22:01 25.34632 -81.53693 25274 ft 399 kts 225°
2026-05-03 22:01 25.32554 -81.55744 25575 ft 401 kts 225°
2026-05-03 22:01 25.30470 -81.57806 25880 ft 403 kts 225°
2026-05-03 22:01 25.28381 -81.59872 26192 ft 404 kts 225°
2026-05-03 22:02 25.26276 -81.61947 26502 ft 406 kts 225°
2026-05-03 22:02 25.24167 -81.64024 26800 ft 408 kts 225°
2026-05-03 22:02 25.22042 -81.66115 27094 ft 409 kts 225°
2026-05-03 22:02 25.19918 -81.68208 27363 ft 411 kts 226°
2026-05-03 22:03 25.17705 -81.70232 27637 ft 416 kts 219°
2026-05-03 22:03 25.15190 -81.71862 27901 ft 424 kts 211°
2026-05-03 22:03 25.12403 -81.73032 28158 ft 432 kts 204°
2026-05-03 22:03 25.09544 -81.74055 28421 ft 433 kts 204°
2026-05-03 22:04 25.06663 -81.75088 28680 ft 435 kts 204°
2026-05-03 22:04 25.03779 -81.76125 28924 ft 437 kts 204°
2026-05-03 22:04 25.00886 -81.77164 29208 ft 438 kts 204°
2026-05-03 22:04 24.97990 -81.78204 29581 ft 437 kts 204°
2026-05-03 22:05 24.95109 -81.79238 29957 ft 436 kts 204°
2026-05-03 22:05 24.92224 -81.80272 30287 ft 435 kts 204°
2026-05-03 22:05 24.89349 -81.81303 30605 ft 434 kts 205°
2026-05-03 22:05 24.86487 -81.82331 30942 ft 432 kts 204°
2026-05-03 22:06 24.83629 -81.83357 31272 ft 431 kts 204°
2026-05-03 22:06 24.80817 -81.84366 31595 ft 430 kts 204°
2026-05-03 22:06 24.77950 -81.85393 31902 ft 429 kts 204°
2026-05-03 22:06 24.75154 -81.86393 31994 ft 428 kts 204°
2026-05-03 22:07 24.69506 -81.88420 32009 ft 427 kts 204°
2026-05-03 22:07 24.63846 -81.90451 32009 ft 427 kts 204°
2026-05-03 22:08 24.58196 -81.92478 32009 ft 428 kts 204°
2026-05-03 22:08 24.52596 -81.94626 32012 ft 422 kts 211°
2026-05-03 22:09 24.47941 -81.98325 32003 ft 410 kts 231°
2026-05-03 22:10 24.43663 -82.06283 31999 ft 405 kts 246°
2026-05-03 22:10 24.41227 -82.11861 31999 ft 405 kts 245°
2026-05-03 22:11 24.38771 -82.17426 32000 ft 406 kts 245°
2026-05-03 22:11 24.36309 -82.23013 32001 ft 406 kts 245°
2026-05-03 22:12 24.33861 -82.28587 32005 ft 406 kts 245°
2026-05-03 22:12 24.31417 -82.34166 32005 ft 406 kts 245°
2026-05-03 22:13 24.28979 -82.39701 32006 ft 406 kts 245°
2026-05-03 22:13 24.26509 -82.45300 32002 ft 406 kts 245°
2026-05-03 22:14 24.24055 -82.50866 32000 ft 406 kts 245°
2026-05-03 22:14 24.21606 -82.56389 31998 ft 406 kts 245°
2026-05-03 22:15 24.19139 -82.61950 31996 ft 406 kts 245°
2026-05-03 22:15 24.16684 -82.67509 31994 ft 406 kts 246°
2026-05-03 22:16 24.14223 -82.73070 31990 ft 406 kts 246°
2026-05-03 22:16 24.11752 -82.78627 31994 ft 406 kts 245°
2026-05-03 22:17 24.09279 -82.84184 31993 ft 406 kts 245°
2026-05-03 22:17 24.06802 -82.89747 31992 ft 406 kts 245°
2026-05-03 22:18 24.04322 -82.95310 31989 ft 406 kts 246°
2026-05-03 22:18 24.01846 -83.00861 31989 ft 407 kts 245°
2026-05-03 22:19 23.99131 -83.06298 31989 ft 409 kts 236°
2026-05-03 22:19 23.95730 -83.11295 31987 ft 410 kts 236°
2026-05-03 22:20 23.92323 -83.16299 31985 ft 410 kts 236°
2026-05-03 22:20 23.88914 -83.21309 31984 ft 411 kts 236°
2026-05-03 22:21 23.85502 -83.26318 31986 ft 411 kts 236°
2026-05-03 22:21 23.82112 -83.31296 31984 ft 411 kts 236°
2026-05-03 22:22 23.78689 -83.36313 31986 ft 412 kts 236°
2026-05-03 22:22 23.75268 -83.41322 31986 ft 412 kts 236°
2026-05-03 22:23 23.71845 -83.46326 31982 ft 412 kts 236°
2026-05-03 22:23 23.68411 -83.51337 31983 ft 412 kts 236°
2026-05-03 22:24 23.64975 -83.56349 31982 ft 412 kts 236°
2026-05-03 22:24 23.61537 -83.61360 31985 ft 413 kts 236°
2026-05-03 22:25 23.58679 -83.65527 31985 ft 413 kts 236°
2026-05-03 22:25 23.55236 -83.70540 31982 ft 413 kts 236°
2026-05-03 22:26 23.51791 -83.75545 31989 ft 414 kts 236°
2026-05-03 22:26 23.48335 -83.80564 31987 ft 414 kts 236°
2026-05-03 22:27 23.44877 -83.85581 31993 ft 414 kts 236°
2026-05-03 22:27 23.41411 -83.90607 31985 ft 415 kts 236°
2026-05-03 22:28 23.37945 -83.95620 31988 ft 415 kts 236°
2026-05-03 22:28 23.34471 -84.00636 31994 ft 415 kts 236°
2026-05-03 22:29 23.30985 -84.05658 31989 ft 416 kts 236°
2026-05-03 22:29 23.27507 -84.10682 31995 ft 416 kts 236°
2026-05-03 22:30 23.24050 -84.15674 31988 ft 416 kts 236°
2026-05-03 22:30 23.20562 -84.20703 31989 ft 417 kts 236°
2026-05-03 22:31 23.17067 -84.25733 31985 ft 417 kts 236°
2026-05-03 22:31 23.13563 -84.30763 31992 ft 417 kts 236°
2026-05-03 22:32 23.10063 -84.35791 31987 ft 418 kts 236°
2026-05-03 22:32 23.06556 -84.40826 31985 ft 418 kts 236°
2026-05-03 22:33 23.03044 -84.45870 31983 ft 418 kts 236°
2026-05-03 22:33 22.99528 -84.50901 31992 ft 419 kts 236°
2026-05-03 22:34 22.96005 -84.55936 31985 ft 419 kts 236°
2026-05-03 22:34 22.92474 -84.60983 31983 ft 420 kts 236°
2026-05-03 22:35 22.88967 -84.65991 31983 ft 420 kts 236°
2026-05-03 22:35 22.85406 -84.71064 31985 ft 420 kts 236°
2026-05-03 22:36 22.81890 -84.76077 31988 ft 421 kts 236°
2026-05-03 22:36 22.78346 -84.81131 31984 ft 421 kts 236°
2026-05-03 22:37 22.74796 -84.86182 31982 ft 422 kts 236°
2026-05-03 22:37 22.71230 -84.91236 31981 ft 423 kts 236°
2026-05-03 22:38 22.67656 -84.96301 31983 ft 423 kts 236°
2026-05-03 22:38 22.64092 -85.01369 31983 ft 423 kts 236°
2026-05-03 22:39 22.60517 -85.06443 31984 ft 424 kts 236°
2026-05-03 22:39 22.56950 -85.11535 31984 ft 425 kts 236°
2026-05-03 22:40 22.53400 -85.16654 31987 ft 426 kts 236°
2026-05-03 22:40 22.49844 -85.21771 31987 ft 426 kts 236°
2026-05-03 22:41 22.46268 -85.26899 31986 ft 427 kts 236°
2026-05-03 22:41 22.42686 -85.32025 31991 ft 427 kts 236°
2026-05-03 22:42 22.39106 -85.37150 31989 ft 428 kts 236°
2026-05-03 22:42 22.35538 -85.42248 31986 ft 428 kts 236°
2026-05-03 22:43 22.31941 -85.47385 31986 ft 429 kts 236°
2026-05-03 22:43 22.28342 -85.52512 31986 ft 429 kts 236°
2026-05-03 22:44 22.24737 -85.57660 31984 ft 430 kts 236°
2026-05-03 22:44 22.22930 -85.60241 31776 ft 431 kts 235°
2026-05-03 22:44 22.21122 -85.62826 31386 ft 432 kts 235°
2026-05-03 22:44 22.19303 -85.65427 30333 ft 439 kts 235°
2026-05-03 22:45 22.17447 -85.68081 29132 ft 446 kts 234°
2026-05-03 22:45 22.15568 -85.70758 28170 ft 447 kts 234°
2026-05-03 22:45 22.13702 -85.73417 27557 ft 440 kts 234°
2026-05-03 22:45 22.11867 -85.76033 26847 ft 436 kts 234°
2026-05-03 22:46 22.10045 -85.78634 26153 ft 432 kts 234°
2026-05-03 22:46 22.08237 -85.81210 25464 ft 429 kts 234°
2026-05-03 22:46 22.06438 -85.83769 24785 ft 427 kts 234°
2026-05-03 22:46 22.04649 -85.86314 24117 ft 425 kts 234°
2026-05-03 22:47 22.02870 -85.88846 23420 ft 423 kts 234°
2026-05-03 22:47 22.01101 -85.91363 22738 ft 419 kts 234°
2026-05-03 22:47 21.99351 -85.93856 22183 ft 414 kts 234°
2026-05-03 22:47 21.97641 -85.96288 21972 ft 399 kts 234°
2026-05-03 22:48 21.95886 -85.98522 22000 ft 384 kts 226°
2026-05-03 22:48 21.93908 -86.00426 21999 ft 380 kts 223°
2026-05-03 22:48 21.91921 -86.02298 21999 ft 379 kts 223°
2026-05-03 22:48 21.89969 -86.04138 21999 ft 378 kts 224°
2026-05-03 22:49 21.87987 -86.06006 22002 ft 378 kts 223°
2026-05-03 22:49 21.86009 -86.07868 22001 ft 379 kts 223°
2026-05-03 22:49 21.84024 -86.09737 21999 ft 379 kts 223°
2026-05-03 22:49 21.82042 -86.11602 22000 ft 379 kts 223°
2026-05-03 22:50 21.80057 -86.13470 22001 ft 379 kts 223°
2026-05-03 22:50 21.78074 -86.15338 22000 ft 379 kts 223°
2026-05-03 22:50 21.76086 -86.17211 21997 ft 379 kts 223°
2026-05-03 22:50 21.74103 -86.19074 21996 ft 379 kts 223°
2026-05-03 22:51 21.72117 -86.20937 21995 ft 379 kts 223°
2026-05-03 22:51 21.70134 -86.22796 21995 ft 374 kts 223°
2026-05-03 22:51 21.68213 -86.24600 21997 ft 367 kts 224°
2026-05-03 22:51 21.66304 -86.26399 21994 ft 358 kts 223°
2026-05-03 22:52 21.64462 -86.28122 21992 ft 345 kts 223°
2026-05-03 22:52 21.62661 -86.29804 21633 ft 342 kts 223°
2026-05-03 22:52 21.60872 -86.31481 21191 ft 341 kts 223°
2026-05-03 22:52 21.59089 -86.33155 20773 ft 339 kts 223°
2026-05-03 22:53 21.57336 -86.34798 20372 ft 338 kts 223°
2026-05-03 22:53 21.55548 -86.36471 19964 ft 336 kts 223°
2026-05-03 22:53 21.53817 -86.38091 19584 ft 334 kts 223°
2026-05-03 22:53 21.51955 -86.39645 19193 ft 334 kts 216°
2026-05-03 22:54 21.50036 -86.41036 18816 ft 332 kts 219°
2026-05-03 22:54 21.48457 -86.42757 18462 ft 326 kts 237°
2026-05-03 22:54 21.47421 -86.44904 18065 ft 323 kts 247°
2026-05-03 22:54 21.46509 -86.47101 17645 ft 323 kts 247°
2026-05-03 22:55 21.45605 -86.49307 17260 ft 321 kts 247°
2026-05-03 22:55 21.44709 -86.51496 16879 ft 320 kts 247°
2026-05-03 22:55 21.43818 -86.53678 16515 ft 318 kts 247°
2026-05-03 22:55 21.42935 -86.55844 16171 ft 317 kts 247°
2026-05-03 22:56 21.42053 -86.58004 15828 ft 315 kts 246°
2026-05-03 22:56 21.41171 -86.60152 15494 ft 314 kts 246°
2026-05-03 22:56 21.40291 -86.62292 15154 ft 312 kts 246°
2026-05-03 22:56 21.39414 -86.64423 14823 ft 311 kts 246°
2026-05-03 22:57 21.38542 -86.66538 14510 ft 310 kts 246°
2026-05-03 22:57 21.37670 -86.68650 14190 ft 308 kts 246°
2026-05-03 22:57 21.36803 -86.70749 13877 ft 307 kts 246°
2026-05-03 22:57 21.35953 -86.72809 13554 ft 305 kts 246°
2026-05-03 22:58 21.35097 -86.74887 13201 ft 304 kts 246°
2026-05-03 22:58 21.34250 -86.76943 12867 ft 302 kts 246°
2026-05-03 22:58 21.33401 -86.79002 12519 ft 300 kts 246°
2026-05-03 22:58 21.32558 -86.81043 12185 ft 299 kts 247°
2026-05-03 22:59 21.31721 -86.83072 11839 ft 297 kts 247°
2026-05-03 22:59 21.30887 -86.85096 11491 ft 296 kts 247°
2026-05-03 22:59 21.30058 -86.87109 11144 ft 295 kts 248°
2026-05-03 22:59 21.29228 -86.89116 10786 ft 293 kts 247°
2026-05-03 23:00 21.28381 -86.91165 9982 ft 309 kts 248°
2026-05-03 23:00 21.27486 -86.93332 9020 ft 325 kts 249°
2026-05-03 23:00 21.26550 -86.95597 8010 ft 340 kts 248°
2026-05-03 23:00 21.25573 -86.97959 6949 ft 354 kts 249°
2026-05-03 23:01 21.24514 -87.00395 5850 ft 369 kts 242°
2026-05-03 23:01 21.22790 -87.02463 5000 ft 377 kts 218°
2026-05-03 23:01 21.20445 -87.03649 4279 ft 375 kts 195°
2026-05-03 23:01 21.17847 -87.03781 3565 ft 371 kts 170°
2026-05-03 23:02 21.15527 -87.02874 3263 ft 342 kts 150°
2026-05-03 23:02 21.13767 -87.01312 2890 ft 317 kts 131°
2026-05-03 23:02 21.12539 -86.99458 2511 ft 294 kts 126°
2026-05-03 23:02 21.11444 -86.97694 2153 ft 275 kts 125°
2026-05-03 23:03 21.10419 -86.96049 1813 ft 257 kts 126°
2026-05-03 23:03 21.09475 -86.94538 1488 ft 230 kts 126°
2026-05-03 23:03 21.08626 -86.93179 1212 ft 214 kts 127°
2026-05-03 23:03 21.07812 -86.91881 930 ft 211 kts 124°
2026-05-03 23:04 21.07000 -86.90584 638 ft 210 kts 124°
2026-05-03 23:04 21.06210 -86.89318 351 ft 199 kts 123°
2026-05-03 23:04 21.05472 -86.88136 476 ft 184 kts 123°
2026-05-03 23:04 21.04754 -86.86965 1061 ft 188 kts 127°
2026-05-03 23:05 21.04073 -86.85771 1674 ft 188 kts 123°
2026-05-03 23:05 21.03426 -86.84552 2229 ft 189 kts 122°
2026-05-03 23:05 21.02834 -86.83274 2675 ft 194 kts 118°
2026-05-03 23:05 21.02429 -86.81894 2899 ft 199 kts 93°
2026-05-03 23:06 21.02812 -86.80453 2993 ft 211 kts 57°
2026-05-03 23:06 21.03860 -86.79353 2984 ft 214 kts 40°
2026-05-03 23:06 21.05063 -86.78410 2988 ft 215 kts 37°
2026-05-03 23:06 21.06277 -86.77496 2987 ft 215 kts 37°
2026-05-03 23:07 21.07504 -86.76581 2984 ft 213 kts 37°
2026-05-03 23:07 21.08772 -86.75628 2995 ft 234 kts 37°
2026-05-03 23:07 21.10134 -86.74601 2992 ft 245 kts 36°
2026-05-03 23:07 21.11531 -86.73541 2991 ft 246 kts 38°
2026-05-03 23:08 21.12931 -86.72479 2991 ft 247 kts 36°
2026-05-03 23:08 21.14356 -86.71441 2993 ft 248 kts 28°
2026-05-03 23:08 21.16015 -86.71036 2993 ft 249 kts 355°
2026-05-03 23:08 21.17641 -86.71591 2993 ft 246 kts 323°
2026-05-03 23:09 21.18749 -86.72927 2995 ft 241 kts 294°
2026-05-03 23:09 21.19417 -86.74578 2997 ft 241 kts 288°
2026-05-03 23:09 21.19998 -86.76234 2997 ft 240 kts 287°
2026-05-03 23:09 21.20584 -86.77929 2994 ft 240 kts 287°
2026-05-03 23:10 21.21152 -86.79586 2993 ft 239 kts 287°
2026-05-03 23:10 21.21727 -86.81256 2994 ft 239 kts 287°
2026-05-03 23:10 21.22296 -86.82920 2992 ft 238 kts 287°
2026-05-03 23:10 21.22858 -86.84593 2993 ft 239 kts 287°
2026-05-03 23:11 21.23427 -86.86270 2997 ft 239 kts 287°
2026-05-03 23:11 21.24002 -86.87935 2997 ft 238 kts 287°
2026-05-03 23:11 21.24590 -86.89599 2996 ft 239 kts 287°
2026-05-03 23:11 21.25168 -86.91263 2996 ft 238 kts 287°
2026-05-03 23:12 21.25740 -86.92936 2999 ft 239 kts 287°
2026-05-03 23:12 21.26314 -86.94613 3001 ft 239 kts 287°
2026-05-03 23:12 21.26880 -86.96278 2998 ft 234 kts 287°
2026-05-03 23:12 21.27418 -86.97845 2992 ft 219 kts 288°
2026-05-03 23:13 21.27937 -86.99375 3000 ft 218 kts 287°
2026-05-03 23:13 21.28450 -87.00904 3000 ft 219 kts 287°
2026-05-03 23:13 21.28946 -87.02455 3002 ft 217 kts 278°
2026-05-03 23:13 21.28820 -87.04015 3005 ft 209 kts 243°
2026-05-03 23:14 21.27901 -87.05177 3006 ft 206 kts 213°
2026-05-03 23:14 21.26697 -87.05976 2996 ft 196 kts 207°
2026-05-03 23:14 21.25547 -87.06663 2997 ft 186 kts 207°
2026-05-03 23:14 21.24422 -87.07320 3004 ft 184 kts 206°
2026-05-03 23:15 21.23331 -87.07942 3320 ft 157 kts 207°
2026-05-03 23:15 21.22480 -87.08419 4209 ft 127 kts 208°
2026-05-03 23:15 21.21677 -87.08858 4812 ft 134 kts 209°
2026-05-03 23:15 21.20763 -87.09364 5218 ft 166 kts 211°
2026-05-03 23:16 21.19613 -87.10114 5020 ft 226 kts 216°
2026-05-03 23:16 21.18251 -87.11142 4560 ft 252 kts 217°
2026-05-03 23:16 21.16838 -87.12176 4487 ft 233 kts 207°
2026-05-03 23:16 21.15345 -87.12463 4268 ft 210 kts 171°
2026-05-03 23:17 21.14102 -87.11828 3983 ft 197 kts 134°
2026-05-03 23:17 21.13507 -87.10552 3603 ft 193 kts 98°
2026-05-03 23:17 21.13479 -87.09117 3178 ft 193 kts 89°
2026-05-03 23:17 21.13574 -87.07702 2998 ft 191 kts 88°
2026-05-03 23:18 21.13694 -87.06268 3003 ft 194 kts 87°
2026-05-03 23:18 21.13817 -87.04831 2998 ft 194 kts 86°
2026-05-03 23:18 21.13938 -87.03423 2708 ft 189 kts 87°
2026-05-03 23:18 21.14074 -87.02031 2280 ft 187 kts 86°
2026-05-03 23:19 21.14194 -87.00677 1897 ft 183 kts 92°
2026-05-03 23:19 21.14046 -86.99799 1607 ft 177 kts 119°
2026-05-03 23:19 21.13023 -86.98454 1486 ft 177 kts 136°
2026-05-03 23:19 21.12085 -86.97616 1489 ft 176 kts 151°
2026-05-03 23:20 21.10970 -86.97041 1488 ft 177 kts 155°
2026-05-03 23:20 21.09817 -86.96549 1489 ft 178 kts 156°
2026-05-03 23:20 21.09116 -86.96085 1491 ft 178 kts 135°
2026-05-03 23:20 21.08428 -86.94972 1480 ft 179 kts 119°
2026-05-03 23:21 21.07959 -86.93732 1472 ft 180 kts 105°
2026-05-03 23:21 21.07747 -86.92430 1148 ft 176 kts 102°
2026-05-03 23:21 21.07480 -86.91178 734 ft 172 kts 105°
2026-05-03 23:21 21.07067 -86.90050 615 ft 151 kts 128°
2026-05-03 23:22 21.05692 -86.88571 204 ft 140 kts 122°
2026-05-03 23:22 21.05194 -86.87710 44 ft 129 kts 126°
2026-05-03 23:22 21.04836 -86.87143 32 ft 61 kts 123°
2026-05-03 23:23 21.04650 -86.86842 32 ft 44 kts 124°
2026-05-03 23:23 21.04495 -86.86599 32 ft 36 kts 122°
2026-05-03 23:23 21.04344 -86.86421 29 ft 29 kts 146°
2026-05-03 23:23 21.04215 -86.86357 37 ft 15 kts 188°
2026-05-03 23:24 21.04199 -86.86428 36 ft 11 kts 294°
2026-05-03 23:24 21.04246 -86.86510 32 ft 15 kts 303°
2026-05-03 23:24 21.04308 -86.86611 29 ft 18 kts 303°
2026-05-03 23:24 21.04379 -86.86724 23 ft 18 kts 306°
2026-05-03 23:25 21.04444 -86.86825 23 ft 16 kts 304°
2026-05-03 23:25 21.04503 -86.86914 25 ft 14 kts 304°
2026-05-03 23:25 21.04553 -86.86992 24 ft 12 kts 304°
2026-05-03 23:25 21.04597 -86.87061 24 ft 10 kts 304°
2026-05-03 23:26 21.04636 -86.87121 25 ft 9 kts 305°
2026-05-03 23:26 21.04669 -86.87174 26 ft 8 kts 303°
2026-05-03 23:26 21.04696 -86.87218 25 ft 6 kts 302°
2026-05-03 23:26 21.04717 -86.87255 28 ft 5 kts 302°
2026-05-03 23:27 21.04754 -86.87316 27 ft 17 kts 302°
2026-05-03 23:27 21.04834 -86.87446 26 ft 21 kts 304°
2026-05-03 23:27 21.04916 -86.87570 27 ft 19 kts 306°
2026-05-03 23:27 21.04985 -86.87686 28 ft 17 kts 302°
2026-05-03 23:28 21.05047 -86.87786 29 ft 15 kts 303°
2026-05-03 23:28 21.05102 -86.87873 29 ft 13 kts 304°
2026-05-03 23:28 21.05151 -86.87950 30 ft 12 kts 304°
2026-05-03 23:28 21.05193 -86.88017 30 ft 10 kts 304°
2026-05-03 23:29 21.05192 -86.88077 30 ft 8 kts 233°
2026-05-03 23:29 21.05152 -86.88114 29 ft 9 kts 214°
2026-05-03 23:29 21.05087 -86.88158 29 ft 13 kts 212°
2026-05-03 23:29 21.05004 -86.88211 29 ft 10 kts 197°
2026-05-03 23:30 21.04933 -86.88194 29 ft 8 kts 158°
2026-05-03 23:30 21.04925 -86.88191 29 ft 2 kts 158°